Панагюрски колонии Т/Х сензор Pro Measurements

Back to Overview

Timestamp Temperature Humidity
5/4/2026 5:49:16 PM 14,2 C 48.8%
5/4/2026 5:42:14 PM 14,7 C 48.3%
5/4/2026 5:35:12 PM 14,9 C 48.5%
5/4/2026 5:28:10 PM 15,1 C 48.9%
5/4/2026 5:21:08 PM 15,0 C 46.9%
5/4/2026 5:14:06 PM 14,8 C 48.8%
5/4/2026 5:07:04 PM 14,6 C 48.3%
5/4/2026 5:00:02 PM 15,0 C 48.1%
5/4/2026 4:53:01 PM 15,6 C 48.7%
5/4/2026 4:45:59 PM 15,2 C 48.7%
5/4/2026 4:38:57 PM 15,3 C 49.5%
5/4/2026 4:31:56 PM 14,9 C 48.0%
5/4/2026 4:24:54 PM 15,2 C 47.8%
5/4/2026 4:17:51 PM 15,2 C 46.7%
5/4/2026 4:10:49 PM 15,7 C 47.0%
5/4/2026 4:06:49 PM 15,2 C 50.2%
5/4/2026 4:06:03 PM 15,2 C 46.7%
5/4/2026 3:59:00 PM 15,5 C 48.5%
5/4/2026 3:53:59 PM 14,8 C 50.9%
5/4/2026 3:46:58 PM 14,6 C 48.5%
5/4/2026 3:42:56 PM 14,2 C 51.6%
5/4/2026 3:37:55 PM 14,5 C 47.8%
5/4/2026 3:35:23 PM 14,5 C 51.0%
5/4/2026 3:34:37 PM 14,6 C 47.6%
5/4/2026 3:33:51 PM 14,6 C 51.1%
5/4/2026 3:29:19 PM 14,6 C 47.3%
5/4/2026 3:27:18 PM 14,5 C 50.6%
5/4/2026 3:22:31 PM 14,7 C 47.1%
5/4/2026 3:20:45 PM 14,8 C 50.6%
5/4/2026 3:16:29 PM 14,9 C 46.7%
5/4/2026 3:09:27 PM 14,8 C 48.2%
5/4/2026 3:02:25 PM 14,8 C 48.6%
5/4/2026 2:59:24 PM 14,7 C 52.4%
5/4/2026 2:52:21 PM 14,4 C 51.7%
5/4/2026 2:45:20 PM 14,3 C 51.9%
5/4/2026 2:38:17 PM 14,3 C 51.7%
5/4/2026 2:37:02 PM 14,1 C 55.8%
5/4/2026 2:34:48 PM 14,2 C 52.0%
5/4/2026 2:27:43 PM 13,7 C 51.6%
5/4/2026 2:20:41 PM 13,6 C 53.3%
5/4/2026 2:13:39 PM 13,5 C 51.2%
5/4/2026 2:06:38 PM 14,0 C 50.7%
5/4/2026 2:04:36 PM 13,9 C 54.0%
5/4/2026 1:57:35 PM 13,7 C 53.7%
5/4/2026 1:50:32 PM 13,6 C 54.4%
5/4/2026 1:46:16 PM 13,6 C 51.0%
5/4/2026 1:41:44 PM 13,6 C 54.4%
5/4/2026 1:40:13 PM 13,7 C 51.2%
5/4/2026 1:33:11 PM 13,7 C 51.8%
5/4/2026 1:32:10 PM 13,7 C 55.2%
5/4/2026 1:29:24 PM 13,6 C 51.2%
5/4/2026 1:24:38 PM 13,3 C 54.3%
5/4/2026 1:23:06 PM 13,2 C 51.1%
5/4/2026 1:22:35 PM 13,2 C 54.6%
5/4/2026 1:15:35 PM 12,6 C 52.4%
5/4/2026 1:08:31 PM 12,6 C 53.9%
5/4/2026 1:06:31 PM 12,8 C 50.4%
5/4/2026 1:05:28 PM 12,8 C 54.4%
5/4/2026 1:04:13 PM 12,7 C 51.3%
5/4/2026 12:57:11 PM 12,6 C 53.3%
5/4/2026 12:50:09 PM 12,6 C 51.8%
5/4/2026 12:49:24 PM 12,6 C 54.9%
5/4/2026 12:46:22 PM 12,6 C 51.8%
5/4/2026 12:42:21 PM 12,3 C 55.3%
5/4/2026 12:40:04 PM 12,1 C 51.4%
5/4/2026 12:33:03 PM 11,9 C 52.7%
5/4/2026 12:26:01 PM 11,6 C 52.0%
5/4/2026 12:18:59 PM 11,7 C 51.5%
5/4/2026 12:11:56 PM 11,7 C 52.7%
5/4/2026 12:04:54 PM 11,4 C 52.9%
5/4/2026 11:57:52 AM 11,1 C 52.5%
5/4/2026 11:50:51 AM 10,8 C 52.7%
5/4/2026 11:43:49 AM 10,7 C 53.7%
5/4/2026 11:36:46 AM 10,4 C 54.3%
5/4/2026 11:35:01 AM 10,2 C 57.6%
5/4/2026 11:31:29 AM 10,3 C 54.3%
5/4/2026 11:24:27 AM 10,0 C 55.6%
5/4/2026 11:22:41 AM 9,9 C 59.0%
5/4/2026 11:21:24 AM 9,7 C 55.7%
5/4/2026 11:14:23 AM 9,6 C 55.9%
5/4/2026 11:07:21 AM 9,3 C 57.7%
5/4/2026 11:00:19 AM 9,1 C 57.5%
5/4/2026 10:53:16 AM 9,1 C 56.8%
5/4/2026 10:46:14 AM 9,0 C 56.9%
5/4/2026 10:39:12 AM 8,8 C 55.3%
5/4/2026 10:35:56 AM 8,7 C 58.5%
5/4/2026 10:28:54 AM 8,5 C 57.1%
5/4/2026 10:21:53 AM 8,3 C 58.1%
5/4/2026 10:14:52 AM 8,2 C 57.1%
5/4/2026 10:07:49 AM 8,1 C 59.1%
5/4/2026 10:00:47 AM 7,9 C 59.3%
5/4/2026 9:53:45 AM 7,8 C 58.1%
5/4/2026 9:46:43 AM 7,6 C 59.7%
5/4/2026 9:39:41 AM 7,3 C 59.4%
5/4/2026 9:32:39 AM 7,0 C 60.6%
5/4/2026 9:25:37 AM 6,8 C 60.7%
5/4/2026 9:18:35 AM 6,7 C 60.1%
5/4/2026 9:11:33 AM 6,7 C 60.5%
5/4/2026 9:04:31 AM 6,3 C 61.1%
5/4/2026 8:57:28 AM 6,2 C 60.9%
5/4/2026 8:50:27 AM 5,9 C 61.8%
5/4/2026 8:43:25 AM 5,7 C 63.4%
5/4/2026 8:36:23 AM 5,4 C 63.3%
5/4/2026 8:29:21 AM 5,1 C 63.5%
5/4/2026 8:22:19 AM 4,8 C 64.3%
5/4/2026 8:15:18 AM 4,4 C 65.3%
5/4/2026 8:08:16 AM 4,0 C 65.6%
5/4/2026 8:01:14 AM 3,7 C 66.9%
5/4/2026 7:54:11 AM 3,4 C 68.2%
5/4/2026 7:47:10 AM 2,9 C 69.9%
5/4/2026 7:40:09 AM 2,3 C 71.7%
5/4/2026 7:33:08 AM 1,9 C 72.8%
5/4/2026 7:26:05 AM 1,5 C 73.9%
5/4/2026 7:19:03 AM 1,1 C 75.2%
5/4/2026 7:12:02 AM 0,7 C 76.7%
5/4/2026 7:05:01 AM 0,4 C 77.9%
5/4/2026 6:57:58 AM 0,4 C 78.3%
5/4/2026 6:50:56 AM 0,1 C 79.4%
5/4/2026 6:43:54 AM -0,3 C 80.7%
5/4/2026 6:36:53 AM 0,0 C 79.7%
5/4/2026 6:29:51 AM 0,0 C 79.5%
5/4/2026 6:22:50 AM 0,0 C 79.2%
5/4/2026 6:15:47 AM 0,0 C 79.9%
5/4/2026 6:08:46 AM -0,1 C 79.9%
5/4/2026 6:01:44 AM -0,2 C 80.1%
5/4/2026 5:54:41 AM -0,4 C 80.6%
5/4/2026 5:47:40 AM -0,6 C 80.7%
5/4/2026 5:40:39 AM -0,4 C 79.8%
5/4/2026 5:33:37 AM 0,0 C 78.2%
5/4/2026 5:26:35 AM 0,3 C 77.1%
5/4/2026 5:19:33 AM 0,5 C 76.3%
5/4/2026 5:12:31 AM 0,6 C 75.4%
5/4/2026 5:05:29 AM 0,7 C 75.3%
5/4/2026 4:58:26 AM 0,7 C 75.5%
5/4/2026 4:51:25 AM 0,6 C 75.3%
5/4/2026 4:44:23 AM 0,6 C 75.7%
5/4/2026 4:37:21 AM 0,5 C 75.9%
5/4/2026 4:30:20 AM 0,4 C 76.8%
5/4/2026 4:23:17 AM 0,4 C 76.8%
5/4/2026 4:16:15 AM 0,5 C 76.5%
5/4/2026 4:09:13 AM 0,6 C 76.1%
5/4/2026 4:02:10 AM 0,6 C 75.9%
5/4/2026 3:55:08 AM 0,8 C 75.0%
5/4/2026 3:48:07 AM 0,7 C 75.7%
5/4/2026 3:41:05 AM 0,6 C 76.1%
5/4/2026 3:34:03 AM 0,3 C 77.1%
5/4/2026 3:27:01 AM 0,5 C 76.5%
5/4/2026 3:19:59 AM 0,4 C 76.8%
5/4/2026 3:12:58 AM 0,3 C 77.1%
5/4/2026 3:05:55 AM 0,4 C 76.9%
5/4/2026 2:58:53 AM 0,6 C 75.9%
5/4/2026 2:51:51 AM 0,6 C 76.0%
5/4/2026 2:44:49 AM 0,4 C 76.8%
5/4/2026 2:37:48 AM 0,2 C 77.5%
5/4/2026 2:30:45 AM 0,0 C 78.3%
5/4/2026 2:23:44 AM 0,0 C 78.7%
5/4/2026 2:16:42 AM 0,0 C 78.2%
5/4/2026 2:09:40 AM 0,3 C 76.8%
5/4/2026 2:02:38 AM 0,6 C 75.3%
5/4/2026 1:55:36 AM 0,9 C 74.1%
5/4/2026 1:48:34 AM 1,1 C 73.0%
5/4/2026 1:41:32 AM 1,2 C 73.5%
5/4/2026 1:34:29 AM 1,1 C 73.8%
5/4/2026 1:27:27 AM 0,9 C 75.6%
5/4/2026 1:20:25 AM 0,7 C 76.7%
5/4/2026 1:13:23 AM 0,6 C 77.1%
5/4/2026 1:06:21 AM 0,5 C 78.0%
5/4/2026 12:59:19 AM 0,2 C 79.3%
5/4/2026 12:52:17 AM 0,0 C 80.6%
5/4/2026 12:45:16 AM 0,0 C 80.8%
5/4/2026 12:38:14 AM 0,0 C 80.4%
5/4/2026 12:31:12 AM 0,2 C 79.9%
5/4/2026 12:24:09 AM 0,4 C 79.3%
5/4/2026 12:17:07 AM 0,5 C 79.0%
5/4/2026 12:10:06 AM 0,5 C 78.7%
5/4/2026 12:03:04 AM 0,7 C 78.0%